Year,Month,Day,Hour,Minute,Value (Times are PST for temperature in C)
2016,02,23,00,00,1.50
2016,02,23,00,01,1.50
2016,02,23,00,02,1.60
2016,02,23,00,03,1.60
2016,02,23,00,04,1.60
2016,02,23,00,05,1.60
2016,02,23,00,06,1.60
2016,02,23,00,07,1.60
2016,02,23,00,08,1.60
2016,02,23,00,09,1.60
2016,02,23,00,10,1.60
2016,02,23,00,11,1.60
2016,02,23,00,12,1.60
2016,02,23,00,13,1.60
2016,02,23,00,14,1.60
2016,02,23,00,15,1.60
2016,02,23,00,16,1.50
2016,02,23,00,17,1.50
2016,02,23,00,18,1.50
2016,02,23,00,19,1.50
2016,02,23,00,20,1.40
2016,02,23,00,21,1.40
2016,02,23,00,22,1.40
2016,02,23,00,23,1.40
2016,02,23,00,24,1.40
2016,02,23,00,25,1.30
2016,02,23,00,26,1.30
2016,02,23,00,27,1.30
2016,02,23,00,28,1.30
2016,02,23,00,29,1.30
2016,02,23,00,30,1.30
2016,02,23,00,31,1.30
2016,02,23,00,32,1.30
2016,02,23,00,33,1.30
2016,02,23,00,34,1.30
2016,02,23,00,35,1.30
2016,02,23,00,36,1.30
2016,02,23,00,37,1.30
2016,02,23,00,38,1.30
2016,02,23,00,39,1.30
2016,02,23,00,40,1.30
2016,02,23,00,41,1.30
2016,02,23,00,42,1.30
2016,02,23,00,43,1.30
2016,02,23,00,44,1.30
2016,02,23,00,45,1.20
2016,02,23,00,46,1.20
2016,02,23,00,47,1.20
2016,02,23,00,48,1.20
2016,02,23,00,49,1.20
2016,02,23,00,50,1.20
2016,02,23,00,51,1.20
2016,02,23,00,52,1.10
2016,02,23,00,53,1.10
2016,02,23,00,54,1.10
2016,02,23,00,55,1.10
2016,02,23,00,56,1.00
2016,02,23,00,57,1.00
2016,02,23,00,58,0.90
2016,02,23,00,59,0.90
2016,02,23,01,00,0.90
2016,02,23,01,01,0.80
2016,02,23,01,02,0.80
2016,02,23,01,03,0.80
2016,02,23,01,04,0.80
2016,02,23,01,05,0.70
2016,02,23,01,06,0.70
2016,02,23,01,07,0.70
2016,02,23,01,08,0.70
2016,02,23,01,09,0.70
2016,02,23,01,10,0.70
2016,02,23,01,11,0.60
2016,02,23,01,12,0.60
2016,02,23,01,13,0.60
2016,02,23,01,14,0.60
2016,02,23,01,15,0.60
2016,02,23,01,16,0.70
2016,02,23,01,17,0.70
2016,02,23,01,18,0.70
2016,02,23,01,19,0.70
2016,02,23,01,20,0.70
2016,02,23,01,21,0.80
2016,02,23,01,22,0.80
2016,02,23,01,23,0.80
2016,02,23,01,24,0.80
2016,02,23,01,25,0.80
2016,02,23,01,26,0.80
2016,02,23,01,27,0.80
2016,02,23,01,28,0.80
2016,02,23,01,29,0.80
2016,02,23,01,30,0.80
2016,02,23,01,31,0.80
2016,02,23,01,32,0.80
2016,02,23,01,33,0.80
2016,02,23,01,34,0.80
2016,02,23,01,35,0.80
2016,02,23,01,36,0.80
2016,02,23,01,37,0.80
2016,02,23,01,38,0.80
2016,02,23,01,39,0.80
2016,02,23,01,40,0.80
2016,02,23,01,41,0.80
2016,02,23,01,42,0.80
2016,02,23,01,43,0.80
2016,02,23,01,44,0.80
2016,02,23,01,45,0.80
2016,02,23,01,46,0.80
2016,02,23,01,47,0.80
2016,02,23,01,48,0.80
2016,02,23,01,49,0.80
2016,02,23,01,50,0.80
2016,02,23,01,51,0.80
2016,02,23,01,52,0.80
2016,02,23,01,53,0.80
2016,02,23,01,54,0.80
2016,02,23,01,55,0.80
2016,02,23,01,56,0.80
2016,02,23,01,57,0.80
2016,02,23,01,58,0.90
2016,02,23,01,59,0.90
2016,02,23,02,00,0.90
2016,02,23,02,01,0.90
2016,02,23,02,02,0.90
2016,02,23,02,03,0.90
2016,02,23,02,04,0.90
2016,02,23,02,05,0.90
2016,02,23,02,06,0.90
2016,02,23,02,07,1.00
2016,02,23,02,08,1.00
2016,02,23,02,09,1.00
2016,02,23,02,10,1.00
2016,02,23,02,11,1.10
2016,02,23,02,12,1.10
2016,02,23,02,13,1.10
2016,02,23,02,14,1.10
2016,02,23,02,15,1.10
2016,02,23,02,16,1.20
2016,02,23,02,17,1.20
2016,02,23,02,18,1.20
2016,02,23,02,19,1.20
2016,02,23,02,20,1.20
2016,02,23,02,21,1.20
2016,02,23,02,22,1.30
2016,02,23,02,23,1.30
2016,02,23,02,24,1.30
2016,02,23,02,25,1.30
2016,02,23,02,26,1.30
2016,02,23,02,27,1.30
2016,02,23,02,28,1.30
2016,02,23,02,29,1.30
2016,02,23,02,30,1.30
2016,02,23,02,31,1.30
2016,02,23,02,32,1.30
2016,02,23,02,33,1.20
2016,02,23,02,34,1.20
2016,02,23,02,35,1.20
2016,02,23,02,36,1.20
2016,02,23,02,37,1.20
2016,02,23,02,38,1.20
2016,02,23,02,39,1.20
2016,02,23,02,40,1.20
2016,02,23,02,41,1.20
2016,02,23,02,42,1.20
2016,02,23,02,43,1.20
2016,02,23,02,44,1.20
2016,02,23,02,45,1.20
2016,02,23,02,46,1.20
2016,02,23,02,47,1.20
2016,02,23,02,48,1.20
2016,02,23,02,49,1.20
2016,02,23,02,50,1.20
2016,02,23,02,51,1.20
2016,02,23,02,52,1.20
2016,02,23,02,53,1.30
2016,02,23,02,54,1.30
2016,02,23,02,55,1.30
2016,02,23,02,56,1.30
2016,02,23,02,57,1.30
2016,02,23,02,58,1.30
2016,02,23,02,59,1.30
2016,02,23,03,00,1.30
2016,02,23,03,01,1.30
2016,02,23,03,02,1.30
2016,02,23,03,03,1.30
2016,02,23,03,04,1.30
2016,02,23,03,05,1.30
2016,02,23,03,06,1.30
2016,02,23,03,07,1.30
2016,02,23,03,08,1.30
2016,02,23,03,09,1.30
2016,02,23,03,10,1.30
2016,02,23,03,11,1.30
2016,02,23,03,12,1.30
2016,02,23,03,13,1.30
2016,02,23,03,14,1.30
2016,02,23,03,15,1.30
2016,02,23,03,16,1.30
2016,02,23,03,17,1.30
2016,02,23,03,18,1.30
2016,02,23,03,19,1.30
2016,02,23,03,20,1.30
2016,02,23,03,21,1.30
2016,02,23,03,22,1.30
2016,02,23,03,23,1.30
2016,02,23,03,24,1.30
2016,02,23,03,25,1.30
2016,02,23,03,26,1.30
2016,02,23,03,27,1.30
2016,02,23,03,28,1.30
2016,02,23,03,29,1.30
2016,02,23,03,30,1.30
2016,02,23,03,31,1.40
2016,02,23,03,32,1.40
2016,02,23,03,33,1.40
2016,02,23,03,34,1.40
2016,02,23,03,35,1.40
2016,02,23,03,36,1.40
2016,02,23,03,37,1.40
2016,02,23,03,38,1.40
2016,02,23,03,39,1.40
2016,02,23,03,40,1.40
2016,02,23,03,41,1.40
2016,02,23,03,42,1.40
2016,02,23,03,43,1.40
2016,02,23,03,44,1.40
2016,02,23,03,45,1.40
2016,02,23,03,46,1.40
2016,02,23,03,47,1.40
2016,02,23,03,48,1.40
2016,02,23,03,49,1.40
2016,02,23,03,50,1.40
2016,02,23,03,51,1.40
2016,02,23,03,52,1.40
2016,02,23,03,53,1.40
2016,02,23,03,54,1.40
2016,02,23,03,55,1.40
2016,02,23,03,56,1.40
2016,02,23,03,57,1.40
2016,02,23,03,58,1.40
2016,02,23,03,59,1.40
2016,02,23,04,00,1.40
2016,02,23,04,01,1.40
2016,02,23,04,02,1.40
2016,02,23,04,03,1.40
2016,02,23,04,04,1.40
2016,02,23,04,05,1.40
2016,02,23,04,06,1.40
2016,02,23,04,07,1.40
2016,02,23,04,08,1.40
2016,02,23,04,09,1.40
2016,02,23,04,10,1.40
2016,02,23,04,11,1.50
2016,02,23,04,12,1.50
2016,02,23,04,13,1.50
2016,02,23,04,14,1.50
2016,02,23,04,15,1.50
2016,02,23,04,16,1.50
2016,02,23,04,17,1.50
2016,02,23,04,18,1.50
2016,02,23,04,19,1.50
2016,02,23,04,20,1.50
2016,02,23,04,21,1.50
2016,02,23,04,22,1.50
2016,02,23,04,23,1.50
2016,02,23,04,24,1.50
2016,02,23,04,25,1.50
2016,02,23,04,26,1.60
2016,02,23,04,27,1.60
2016,02,23,04,28,1.60
2016,02,23,04,29,1.60
2016,02,23,04,30,1.60
2016,02,23,04,31,1.60
2016,02,23,04,32,1.60
2016,02,23,04,33,1.60
2016,02,23,04,34,1.60
2016,02,23,04,35,1.70
2016,02,23,04,36,1.70
2016,02,23,04,37,1.70
2016,02,23,04,38,1.70
2016,02,23,04,39,1.70
2016,02,23,04,40,1.70
2016,02,23,04,41,1.70
2016,02,23,04,42,1.70
2016,02,23,04,43,1.70
2016,02,23,04,44,1.80
2016,02,23,04,45,1.80
2016,02,23,04,46,1.80
2016,02,23,04,47,1.80
2016,02,23,04,48,1.80
2016,02,23,04,49,1.80
2016,02,23,04,50,1.80
2016,02,23,04,51,1.80
2016,02,23,04,52,1.80
2016,02,23,04,53,1.80
2016,02,23,04,54,1.80
2016,02,23,04,55,1.80
2016,02,23,04,56,1.80
2016,02,23,04,57,1.80
2016,02,23,04,58,1.80
2016,02,23,04,59,1.80
2016,02,23,05,00,1.80
2016,02,23,05,01,1.80
2016,02,23,05,02,1.80
2016,02,23,05,03,1.80
2016,02,23,05,04,1.80
2016,02,23,05,05,1.90
2016,02,23,05,06,1.90
2016,02,23,05,07,1.90
2016,02,23,05,08,1.90
2016,02,23,05,09,1.90
2016,02,23,05,10,1.90
2016,02,23,05,11,1.90
2016,02,23,05,12,1.90
2016,02,23,05,13,1.90
2016,02,23,05,14,1.90
2016,02,23,05,15,1.90
2016,02,23,05,16,1.90
2016,02,23,05,17,1.90
2016,02,23,05,18,1.90
2016,02,23,05,19,1.90
2016,02,23,05,20,1.90
2016,02,23,05,21,1.90
2016,02,23,05,22,1.90
2016,02,23,05,23,1.90
2016,02,23,05,24,1.90
2016,02,23,05,25,1.90
2016,02,23,05,26,1.90
2016,02,23,05,27,1.90
2016,02,23,05,28,2.00
2016,02,23,05,29,2.00
2016,02,23,05,30,2.00
2016,02,23,05,31,2.00
2016,02,23,05,32,2.00
2016,02,23,05,33,2.00
2016,02,23,05,34,2.00
2016,02,23,05,35,2.00
2016,02,23,05,36,2.10
2016,02,23,05,37,2.10
2016,02,23,05,38,2.10
2016,02,23,05,39,2.10
2016,02,23,05,40,2.10
2016,02,23,05,41,2.10
2016,02,23,05,42,2.10
2016,02,23,05,43,2.10
2016,02,23,05,44,2.10
2016,02,23,05,45,2.10
2016,02,23,05,46,2.10
2016,02,23,05,47,2.10
2016,02,23,05,48,2.10
2016,02,23,05,49,2.10
2016,02,23,05,50,2.10
2016,02,23,05,51,2.10
2016,02,23,05,52,2.10
2016,02,23,05,53,2.10
2016,02,23,05,54,2.10
2016,02,23,05,55,2.10
2016,02,23,05,56,2.10
2016,02,23,05,57,2.10
2016,02,23,05,58,2.10
2016,02,23,05,59,2.10
2016,02,23,06,00,2.10
2016,02,23,06,01,2.10
2016,02,23,06,02,2.20
2016,02,23,06,03,2.20
2016,02,23,06,04,2.20
2016,02,23,06,05,2.20
2016,02,23,06,06,2.20
2016,02,23,06,07,2.20
2016,02,23,06,08,2.20
2016,02,23,06,09,2.20
2016,02,23,06,10,2.20
2016,02,23,06,11,2.20
2016,02,23,06,12,2.20
2016,02,23,06,13,2.20
2016,02,23,06,14,2.20
2016,02,23,06,15,2.20
2016,02,23,06,16,2.20
2016,02,23,06,17,2.20
2016,02,23,06,18,2.20
2016,02,23,06,19,2.20
2016,02,23,06,20,2.20
2016,02,23,06,21,2.20
2016,02,23,06,22,2.20
2016,02,23,06,23,2.20
2016,02,23,06,24,2.20
2016,02,23,06,25,2.20
2016,02,23,06,26,2.20
2016,02,23,06,27,2.30
2016,02,23,06,28,2.30
2016,02,23,06,29,2.30
2016,02,23,06,30,2.30
2016,02,23,06,31,2.30
2016,02,23,06,32,2.30
2016,02,23,06,33,2.30
2016,02,23,06,34,2.30
2016,02,23,06,35,2.30
2016,02,23,06,36,2.30
2016,02,23,06,37,2.30
2016,02,23,06,38,2.30
2016,02,23,06,39,2.30
2016,02,23,06,40,2.30
2016,02,23,06,41,2.30
2016,02,23,06,42,2.30
2016,02,23,06,43,2.30
2016,02,23,06,44,2.30
2016,02,23,06,45,2.30
2016,02,23,06,46,2.30
2016,02,23,06,47,2.30
2016,02,23,06,48,2.30
2016,02,23,06,49,2.30
2016,02,23,06,50,2.30
2016,02,23,06,51,2.30
2016,02,23,06,52,2.30
2016,02,23,06,53,2.30
2016,02,23,06,54,2.30
2016,02,23,06,55,2.20
2016,02,23,06,56,2.20
2016,02,23,06,57,2.20
2016,02,23,06,58,2.20
2016,02,23,06,59,2.20
2016,02,23,07,00,2.20
2016,02,23,07,01,2.20
2016,02,23,07,02,2.20
2016,02,23,07,03,2.20
2016,02,23,07,04,2.20
2016,02,23,07,05,2.20
2016,02,23,07,06,2.20
2016,02,23,07,07,2.20
2016,02,23,07,08,2.20
2016,02,23,07,09,2.20
2016,02,23,07,10,2.20
2016,02,23,07,11,2.10
2016,02,23,07,12,2.10
2016,02,23,07,13,2.10
2016,02,23,07,14,2.10
2016,02,23,07,15,2.10
2016,02,23,07,16,2.10
2016,02,23,07,17,2.10
2016,02,23,07,18,2.10
2016,02,23,07,19,2.10
2016,02,23,07,20,2.10
2016,02,23,07,21,2.10
2016,02,23,07,22,2.10
2016,02,23,07,23,2.10
2016,02,23,07,24,2.10
2016,02,23,07,25,2.10
2016,02,23,07,26,2.10
2016,02,23,07,27,2.10
2016,02,23,07,28,2.10
2016,02,23,07,29,2.10
2016,02,23,07,30,2.10
2016,02,23,07,31,2.10
2016,02,23,07,32,2.10
2016,02,23,07,33,2.10
2016,02,23,07,34,2.10
2016,02,23,07,35,2.10
2016,02,23,07,36,2.10
2016,02,23,07,37,2.10
2016,02,23,07,38,2.10
2016,02,23,07,39,2.10
2016,02,23,07,40,2.10
2016,02,23,07,41,2.10
2016,02,23,07,42,2.10
2016,02,23,07,43,2.00
2016,02,23,07,44,2.00
2016,02,23,07,45,2.00
2016,02,23,07,46,2.00
2016,02,23,07,47,2.00
2016,02,23,07,48,2.00
2016,02,23,07,49,2.00
2016,02,23,07,50,2.00
2016,02,23,07,51,2.00
2016,02,23,07,52,2.00
2016,02,23,07,53,2.00
2016,02,23,07,54,2.00
2016,02,23,07,55,2.00
2016,02,23,07,56,2.10
2016,02,23,07,57,2.10
2016,02,23,07,58,2.10
2016,02,23,07,59,2.10
2016,02,23,08,00,2.10
2016,02,23,08,01,2.20
2016,02,23,08,02,2.20
2016,02,23,08,03,2.20
2016,02,23,08,04,2.30
2016,02,23,08,05,2.30
2016,02,23,08,06,2.30
2016,02,23,08,07,2.30
2016,02,23,08,08,2.30
2016,02,23,08,09,2.30
2016,02,23,08,10,2.30
2016,02,23,08,11,2.40
2016,02,23,08,12,2.40
2016,02,23,08,13,2.40
2016,02,23,08,14,2.40
2016,02,23,08,15,2.40
2016,02,23,08,16,2.40
2016,02,23,08,17,2.40
2016,02,23,08,18,2.50
2016,02,23,08,19,2.50
2016,02,23,08,20,2.50
2016,02,23,08,21,2.50
2016,02,23,08,22,2.50
2016,02,23,08,23,2.60
2016,02,23,08,24,2.60
2016,02,23,08,25,2.60
2016,02,23,08,26,2.60
2016,02,23,08,27,2.60
2016,02,23,08,28,2.60
2016,02,23,08,29,2.60
2016,02,23,08,30,2.70
2016,02,23,08,31,2.70
2016,02,23,08,32,2.70
2016,02,23,08,33,2.70
2016,02,23,08,34,2.70
2016,02,23,08,35,2.70
2016,02,23,08,36,2.70
2016,02,23,08,37,2.70
2016,02,23,08,38,2.70
2016,02,23,08,39,2.70
2016,02,23,08,40,2.80
2016,02,23,08,41,2.80
2016,02,23,08,42,2.80
2016,02,23,08,43,2.80
2016,02,23,08,44,2.90
2016,02,23,08,45,2.90
2016,02,23,08,46,2.90
2016,02,23,08,47,3.00
2016,02,23,08,48,3.00
2016,02,23,08,49,3.10
2016,02,23,08,50,3.10
2016,02,23,08,51,3.20
2016,02,23,08,52,3.20
2016,02,23,08,53,3.20
2016,02,23,08,54,3.30
2016,02,23,08,55,3.30
2016,02,23,08,56,3.30
2016,02,23,08,57,3.30
2016,02,23,08,58,3.30
2016,02,23,08,59,3.40
2016,02,23,09,00,3.40
2016,02,23,09,01,3.40
2016,02,23,09,02,3.50
2016,02,23,09,03,3.50
2016,02,23,09,04,3.60
2016,02,23,09,05,3.60
2016,02,23,09,06,3.70
2016,02,23,09,07,3.70
2016,02,23,09,08,3.70
2016,02,23,09,09,3.80
2016,02,23,09,10,3.80
2016,02,23,09,11,3.90
2016,02,23,09,12,3.90
2016,02,23,09,13,4.00
2016,02,23,09,14,4.10
2016,02,23,09,15,4.10
2016,02,23,09,16,4.20
2016,02,23,09,17,4.20
2016,02,23,09,18,4.30
2016,02,23,09,19,4.30
2016,02,23,09,20,4.40
2016,02,23,09,21,4.40
2016,02,23,09,22,4.50
2016,02,23,09,23,4.50
2016,02,23,09,24,4.60
2016,02,23,09,25,4.70
2016,02,23,09,26,4.80
2016,02,23,09,27,4.80
2016,02,23,09,28,4.90
2016,02,23,09,29,4.90
2016,02,23,09,30,5.00
2016,02,23,09,31,5.10
2016,02,23,09,32,5.10
2016,02,23,09,33,5.20
2016,02,23,09,34,5.20
2016,02,23,09,35,5.20
2016,02,23,09,36,5.30
2016,02,23,09,37,5.30
2016,02,23,09,38,5.30
2016,02,23,09,39,5.30
2016,02,23,09,40,5.40
2016,02,23,09,41,5.40
2016,02,23,09,42,5.40
2016,02,23,09,43,5.40
2016,02,23,09,44,5.50
2016,02,23,09,45,5.50
2016,02,23,09,46,5.50
2016,02,23,09,47,5.60
2016,02,23,09,48,5.60
2016,02,23,09,49,5.60
2016,02,23,09,50,5.60
2016,02,23,09,51,5.70
2016,02,23,09,52,5.70
2016,02,23,09,53,5.70
2016,02,23,09,54,5.70
2016,02,23,09,55,5.80
2016,02,23,09,56,5.80
2016,02,23,09,57,5.80
2016,02,23,09,58,5.80
2016,02,23,09,59,5.80
2016,02,23,10,00,5.80
2016,02,23,10,01,5.80
2016,02,23,10,02,5.80
2016,02,23,10,03,5.80
2016,02,23,10,04,5.90
2016,02,23,10,05,6.00
2016,02,23,10,06,6.00
2016,02,23,10,07,6.10
2016,02,23,10,08,6.10
2016,02,23,10,09,6.10
2016,02,23,10,10,6.20
2016,02,23,10,11,6.20
2016,02,23,10,12,6.30
2016,02,23,10,13,6.30
2016,02,23,10,14,6.40
2016,02,23,10,15,6.40
2016,02,23,10,16,6.40
2016,02,23,10,17,6.40
2016,02,23,10,18,6.40
2016,02,23,10,19,6.40
2016,02,23,10,20,6.40
2016,02,23,10,21,6.40
2016,02,23,10,22,6.40
2016,02,23,10,23,6.40
2016,02,23,10,24,6.40
2016,02,23,10,25,6.40
2016,02,23,10,26,6.40
2016,02,23,10,27,6.40
2016,02,23,10,28,6.40
2016,02,23,10,29,6.40
2016,02,23,10,30,6.40
2016,02,23,10,31,6.40
2016,02,23,10,32,6.50
2016,02,23,10,33,6.50
2016,02,23,10,34,6.50
2016,02,23,10,35,6.60
2016,02,23,10,36,6.60
2016,02,23,10,37,6.70
2016,02,23,10,38,6.70
2016,02,23,10,39,6.70
2016,02,23,10,40,6.70
2016,02,23,10,41,6.70
2016,02,23,10,42,6.80
2016,02,23,10,43,6.80
2016,02,23,10,44,6.90
2016,02,23,10,45,7.00
2016,02,23,10,46,7.10
2016,02,23,10,47,7.10
2016,02,23,10,48,7.20
2016,02,23,10,49,7.30
2016,02,23,10,50,7.30
2016,02,23,10,51,7.30
2016,02,23,10,52,7.40
2016,02,23,10,53,7.40
2016,02,23,10,54,7.50
2016,02,23,10,55,7.60
2016,02,23,10,56,7.70
2016,02,23,10,57,7.80
2016,02,23,10,58,7.90
2016,02,23,10,59,8.00
2016,02,23,11,00,7.90
2016,02,23,11,01,7.80
2016,02,23,11,02,7.80
2016,02,23,11,03,7.80
2016,02,23,11,04,7.80
2016,02,23,11,05,7.80
2016,02,23,11,06,7.80
2016,02,23,11,07,7.90
2016,02,23,11,08,7.90
2016,02,23,11,09,7.90
2016,02,23,11,10,7.80
2016,02,23,11,11,7.80
2016,02,23,11,12,7.80
2016,02,23,11,13,7.80
2016,02,23,11,14,7.80
2016,02,23,11,15,7.90
2016,02,23,11,16,7.90
2016,02,23,11,17,8.00
2016,02,23,11,18,8.10
2016,02,23,11,19,8.20
2016,02,23,11,20,8.20
2016,02,23,11,21,8.20
2016,02,23,11,22,8.20
2016,02,23,11,23,8.20
2016,02,23,11,24,8.20
2016,02,23,11,25,8.20
2016,02,23,11,26,8.30
2016,02,23,11,27,8.30
2016,02,23,11,28,8.30
2016,02,23,11,29,8.30
2016,02,23,11,30,8.30
2016,02,23,11,31,8.30
2016,02,23,11,32,8.40
2016,02,23,11,33,8.40
2016,02,23,11,34,8.40
2016,02,23,11,35,8.40
2016,02,23,11,36,8.50
2016,02,23,11,37,8.50
2016,02,23,11,38,8.50
2016,02,23,11,39,8.50
2016,02,23,11,40,8.60
2016,02,23,11,41,8.60
2016,02,23,11,42,8.60
2016,02,23,11,43,8.60
2016,02,23,11,44,8.60
2016,02,23,11,45,8.60
2016,02,23,11,46,8.60
2016,02,23,11,47,8.60
2016,02,23,11,48,8.60
2016,02,23,11,49,8.60
2016,02,23,11,50,8.50
2016,02,23,11,51,8.50
2016,02,23,11,52,8.60
2016,02,23,11,53,8.60
2016,02,23,11,54,8.60
2016,02,23,11,55,8.70
2016,02,23,11,56,8.70
2016,02,23,11,57,8.80
2016,02,23,11,58,8.90
2016,02,23,11,59,8.90
2016,02,23,12,00,8.80
2016,02,23,12,01,8.80
2016,02,23,12,02,8.80
2016,02,23,12,03,8.70
2016,02,23,12,04,8.80
2016,02,23,12,05,8.80
2016,02,23,12,06,8.90
2016,02,23,12,07,8.90
2016,02,23,12,08,9.00
2016,02,23,12,09,9.00
2016,02,23,12,10,9.00
2016,02,23,12,11,9.10
2016,02,23,12,12,9.10
2016,02,23,12,13,9.00
2016,02,23,12,14,8.90
2016,02,23,12,15,8.90
2016,02,23,12,16,8.90
2016,02,23,12,17,8.90
2016,02,23,12,18,8.90
2016,02,23,12,19,8.90
2016,02,23,12,20,8.90
2016,02,23,12,21,9.00
2016,02,23,12,22,9.00
2016,02,23,12,23,9.10
2016,02,23,12,24,9.10
2016,02,23,12,25,9.20
2016,02,23,12,26,9.20
2016,02,23,12,27,9.20
2016,02,23,12,28,9.10
2016,02,23,12,29,9.10
2016,02,23,12,30,9.00
2016,02,23,12,31,8.90
2016,02,23,12,32,8.90
2016,02,23,12,33,9.00
2016,02,23,12,34,9.00
2016,02,23,12,35,9.10
2016,02,23,12,36,9.10
2016,02,23,12,37,9.10
2016,02,23,12,38,9.10
2016,02,23,12,39,9.10
2016,02,23,12,40,9.10
2016,02,23,12,41,9.00
2016,02,23,12,42,8.90
2016,02,23,12,43,8.90
2016,02,23,12,44,8.90
2016,02,23,12,45,9.00
2016,02,23,12,46,9.10
2016,02,23,12,47,9.20
2016,02,23,12,48,9.30
2016,02,23,12,49,9.40
2016,02,23,12,50,9.50
2016,02,23,12,51,9.50
2016,02,23,12,52,9.50
2016,02,23,12,53,9.40
2016,02,23,12,54,9.40
2016,02,23,12,55,9.40
2016,02,23,12,56,9.30
2016,02,23,12,57,9.30
2016,02,23,12,58,9.30
2016,02,23,12,59,9.40
2016,02,23,13,00,9.40
2016,02,23,13,01,9.40
2016,02,23,13,02,9.40
2016,02,23,13,03,9.40
2016,02,23,13,04,9.40
2016,02,23,13,05,9.40
2016,02,23,13,06,9.40
2016,02,23,13,07,9.50
2016,02,23,13,08,9.60
2016,02,23,13,09,9.60
2016,02,23,13,10,9.60
2016,02,23,13,11,9.60
2016,02,23,13,12,9.50
2016,02,23,13,13,9.50
2016,02,23,13,14,9.50
2016,02,23,13,15,9.50
2016,02,23,13,16,9.50
2016,02,23,13,17,9.50
2016,02,23,13,18,9.60
2016,02,23,13,19,9.60
2016,02,23,13,20,9.50
2016,02,23,13,21,9.50
2016,02,23,13,22,9.50
2016,02,23,13,23,9.60
2016,02,23,13,24,9.60
2016,02,23,13,25,9.60
2016,02,23,13,26,9.60
2016,02,23,13,27,9.70
2016,02,23,13,28,9.70
2016,02,23,13,29,9.70
2016,02,23,13,30,9.70
2016,02,23,13,31,9.80
2016,02,23,13,32,9.80
2016,02,23,13,33,9.90
2016,02,23,13,34,9.90
2016,02,23,13,35,9.90
2016,02,23,13,36,9.80
2016,02,23,13,37,9.80
2016,02,23,13,38,9.80
2016,02,23,13,39,9.90
2016,02,23,13,40,9.90
2016,02,23,13,41,10.00
2016,02,23,13,42,10.00
2016,02,23,13,43,10.00
2016,02,23,13,44,10.00
2016,02,23,13,45,10.00
2016,02,23,13,46,10.10
2016,02,23,13,47,10.10
2016,02,23,13,48,10.10
2016,02,23,13,49,10.10
2016,02,23,13,50,10.10
2016,02,23,13,51,10.10
2016,02,23,13,52,10.00
2016,02,23,13,53,10.00
2016,02,23,13,54,10.00
2016,02,23,13,55,10.10
2016,02,23,13,56,10.10
2016,02,23,13,57,10.10
2016,02,23,13,58,10.10
2016,02,23,13,59,10.10
2016,02,23,14,00,10.10
2016,02,23,14,01,10.10
2016,02,23,14,02,10.00
2016,02,23,14,03,10.00
2016,02,23,14,04,10.00
2016,02,23,14,05,10.00
2016,02,23,14,06,10.10
2016,02,23,14,07,10.10
2016,02,23,14,08,10.10
2016,02,23,14,09,10.10
2016,02,23,14,10,10.10
2016,02,23,14,11,10.10
2016,02,23,14,12,10.10
2016,02,23,14,13,10.10
2016,02,23,14,14,10.10
2016,02,23,14,15,10.10
2016,02,23,14,16,10.20
2016,02,23,14,17,10.20
2016,02,23,14,18,10.20
2016,02,23,14,19,10.20
2016,02,23,14,20,10.20
2016,02,23,14,21,10.20
2016,02,23,14,22,10.30
2016,02,23,14,23,10.30
2016,02,23,14,24,10.40
2016,02,23,14,25,10.40
2016,02,23,14,26,10.40
2016,02,23,14,27,10.40
2016,02,23,14,28,10.40
2016,02,23,14,29,10.30
2016,02,23,14,30,10.40
2016,02,23,14,31,10.40
2016,02,23,14,32,10.40
2016,02,23,14,33,10.40
2016,02,23,14,34,10.30
2016,02,23,14,35,10.30
2016,02,23,14,36,10.20
2016,02,23,14,37,10.20
2016,02,23,14,38,10.30
2016,02,23,14,39,10.30
2016,02,23,14,40,10.40
2016,02,23,14,41,10.40
2016,02,23,14,42,10.40
2016,02,23,14,43,10.40
2016,02,23,14,44,10.50
2016,02,23,14,45,10.40
2016,02,23,14,46,10.40
2016,02,23,14,47,10.40
2016,02,23,14,48,10.40
2016,02,23,14,49,10.40
2016,02,23,14,50,10.40
2016,02,23,14,51,10.50
2016,02,23,14,52,10.50
2016,02,23,14,53,10.40
2016,02,23,14,54,10.40
2016,02,23,14,55,10.40
2016,02,23,14,56,10.40
2016,02,23,14,57,10.30
2016,02,23,14,58,10.30
2016,02,23,14,59,10.30
2016,02,23,15,00,10.30
2016,02,23,15,01,10.20
2016,02,23,15,02,10.20
2016,02,23,15,03,10.20
2016,02,23,15,04,10.20
2016,02,23,15,05,10.20
2016,02,23,15,06,10.30
2016,02,23,15,07,10.30
2016,02,23,15,08,10.20
2016,02,23,15,09,10.20
2016,02,23,15,10,10.20
2016,02,23,15,11,10.20
2016,02,23,15,12,10.20
2016,02,23,15,13,10.20
2016,02,23,15,14,10.20
2016,02,23,15,15,10.20
2016,02,23,15,16,10.20
2016,02,23,15,17,10.20
2016,02,23,15,18,10.20
2016,02,23,15,19,10.20
2016,02,23,15,20,10.10
2016,02,23,15,21,10.10
2016,02,23,15,22,10.10
2016,02,23,15,23,10.10
2016,02,23,15,24,10.10
2016,02,23,15,25,10.10
2016,02,23,15,26,10.10
2016,02,23,15,27,10.10
2016,02,23,15,28,10.10
2016,02,23,15,29,10.10
2016,02,23,15,30,10.10
2016,02,23,15,31,10.10
2016,02,23,15,32,10.10
2016,02,23,15,33,10.10
2016,02,23,15,34,10.00
2016,02,23,15,35,10.00
2016,02,23,15,36,10.00
2016,02,23,15,37,10.00
2016,02,23,15,38,10.00
2016,02,23,15,39,10.00
2016,02,23,15,40,10.00
2016,02,23,15,41,10.00
2016,02,23,15,42,10.00
2016,02,23,15,43,10.00
2016,02,23,15,44,10.00
2016,02,23,15,45,10.00
2016,02,23,15,46,10.00
2016,02,23,15,47,9.90
2016,02,23,15,48,9.90
2016,02,23,15,49,9.90
2016,02,23,15,50,9.90
2016,02,23,15,51,9.90
2016,02,23,15,52,9.90
2016,02,23,15,53,10.00
2016,02,23,15,54,10.00
2016,02,23,15,55,10.00
2016,02,23,15,56,10.00
2016,02,23,15,57,10.00
2016,02,23,15,58,10.00
2016,02,23,15,59,10.00
2016,02,23,16,00,9.90
2016,02,23,16,01,9.90
2016,02,23,16,02,9.90
2016,02,23,16,03,9.90
2016,02,23,16,04,9.90
2016,02,23,16,05,9.90
2016,02,23,16,06,9.90
2016,02,23,16,07,9.90
2016,02,23,16,08,9.80
2016,02,23,16,09,9.80
2016,02,23,16,10,9.80
2016,02,23,16,11,9.80
2016,02,23,16,12,9.80
2016,02,23,16,13,9.80
2016,02,23,16,14,9.80
2016,02,23,16,15,9.90
2016,02,23,16,16,9.90
2016,02,23,16,17,9.90
2016,02,23,16,18,10.00
2016,02,23,16,19,10.00
2016,02,23,16,20,10.00
2016,02,23,16,21,10.00
2016,02,23,16,22,10.00
2016,02,23,16,23,10.00
2016,02,23,16,24,10.00
2016,02,23,16,25,10.00
2016,02,23,16,26,10.00
2016,02,23,16,27,9.90
2016,02,23,16,28,9.90
2016,02,23,16,29,9.90
2016,02,23,16,30,9.90
2016,02,23,16,31,9.90
2016,02,23,16,32,9.80
2016,02,23,16,33,9.80
2016,02,23,16,34,9.80
2016,02,23,16,35,9.80
2016,02,23,16,36,9.80
2016,02,23,16,37,9.80
2016,02,23,16,38,9.80
2016,02,23,16,39,9.80
2016,02,23,16,40,9.80
2016,02,23,16,41,9.80
2016,02,23,16,42,9.80
2016,02,23,16,43,9.80
2016,02,23,16,44,9.80
2016,02,23,16,45,9.80
2016,02,23,16,46,9.80
2016,02,23,16,47,9.80
2016,02,23,16,48,9.80
2016,02,23,16,49,9.80
2016,02,23,16,50,9.80
2016,02,23,16,51,9.80
2016,02,23,16,52,9.80
2016,02,23,16,53,9.80
2016,02,23,16,54,9.80
2016,02,23,16,55,9.80
2016,02,23,16,56,9.70
2016,02,23,16,57,9.70
2016,02,23,16,58,9.70
2016,02,23,16,59,9.70
2016,02,23,17,00,9.70
2016,02,23,17,01,9.70
2016,02,23,17,02,9.70
2016,02,23,17,03,9.70
2016,02,23,17,04,9.70
2016,02,23,17,05,9.70
2016,02,23,17,06,9.70
2016,02,23,17,07,9.70
2016,02,23,17,08,9.70
2016,02,23,17,09,9.70
2016,02,23,17,10,9.70
2016,02,23,17,11,9.70
2016,02,23,17,12,9.70
2016,02,23,17,13,9.70
2016,02,23,17,14,9.70
2016,02,23,17,15,9.60
2016,02,23,17,16,9.60
2016,02,23,17,17,9.60
2016,02,23,17,18,9.60
2016,02,23,17,19,9.60
2016,02,23,17,20,9.60
2016,02,23,17,21,9.50
2016,02,23,17,22,9.50
2016,02,23,17,23,9.50
2016,02,23,17,24,9.40
2016,02,23,17,25,9.40
2016,02,23,17,26,9.40
2016,02,23,17,27,9.30
2016,02,23,17,28,9.30
2016,02,23,17,29,9.30
2016,02,23,17,30,9.20
2016,02,23,17,31,9.20
2016,02,23,17,32,9.10
2016,02,23,17,33,9.10
2016,02,23,17,34,9.00
2016,02,23,17,35,9.00
2016,02,23,17,36,8.90
2016,02,23,17,37,8.90
2016,02,23,17,38,8.80
2016,02,23,17,39,8.80
2016,02,23,17,40,8.80
2016,02,23,17,41,8.80
2016,02,23,17,42,8.70
2016,02,23,17,43,8.70
2016,02,23,17,44,8.70
2016,02,23,17,45,8.70
2016,02,23,17,46,8.70
2016,02,23,17,47,8.60
2016,02,23,17,48,8.60
2016,02,23,17,49,8.60
2016,02,23,17,50,8.60
2016,02,23,17,51,8.50
2016,02,23,17,52,8.50
2016,02,23,17,53,8.50
2016,02,23,17,54,8.40
2016,02,23,17,55,8.40
2016,02,23,17,56,8.30
2016,02,23,17,57,8.30
2016,02,23,17,58,8.30
2016,02,23,17,59,8.20
2016,02,23,18,00,8.20